Regional Weather Roundup
Issued by NWS

Home | Current Version | Previous Version | Text Only | Print | Product List | Glossary On
Versions: 1 2 3 4 5 6 7 8 9 10 11 12 13 14 15 16 17 18 19 20 21 22 23 24 25 26 27 28 29 30 31 32 33 34 35 36 37 38 39 40 41 42 43 44 45 46 47 48 49 50
667
ASUS45 KBOU 131610
RWRCO

WEATHER ROUNDUP FOR COLORADO
NATIONAL WEATHER SERVICE DENVER/BOULDER CO
900 AM MST FRI DEC 13 2019

NOTE: "FAIR" INDICATES FEW OR NO CLOUDS BELOW 12000 FEET WITH NO
SIGNIFICANT WEATHER AND/OR OBSTRUCTIONS TO VISIBILITY.

COZ001>005-013-030-031-131700-
...NORTHWEST COLORADO...

CITY           SKY/WX    TMP DP  RH WIND       PRES   REMARKS
CRAIG          CLOUDY    32  26  78 W14       30.09S WCI  22
HAYDEN         CLOUDY    29  25  85 W9        30.10R WCI  20
MEEKER         SNOW      31  29  92 CALM      30.10R VSB 1/4
RANGELY        FAIR      32  31  95 CALM      30.12S
RABBIT EARS PA CLOUDY   N/A N/A N/A MISG      29.97R
STEAMBOAT SPGS CLOUDY    30  23  74 W16G29    30.05R WCI  18
WALDEN         NOT AVBL
$$

COZ006>008-011-131700-
...WEST CENTRAL VALLEYS...

CITY           SKY/WX    TMP DP  RH WIND       PRES   REMARKS
GRAND JUNCTION FAIR      32  27  81 E3        30.15R
MONTROSE       FAIR      28  23  81 VRB5      30.16S WCI  23
EAGLE          CLOUDY    33  29  85 CALM      30.07F
RIFLE          FOG       29  27  92 SW7       30.11R VSB 1/4 WCI  22
DELTA          FAIR      32  28  85 MISG      30.16R
NUCLA          FAIR      36  28  75 E5        30.20R
$$

COZ017>023-064>068-131700-
...SOUTHWEST COLORADO...

CITY           SKY/WX    TMP DP  RH WIND       PRES   REMARKS
DURANGO        FAIR      32  27  81 E6        30.14R WCI  26
CORTEZ         FAIR      32  28  85 NE6       30.19R WCI  26
PAGOSA SPRINGS PTSUNNY   28  28 100 CALM      30.15R
TELLURIDE      CLOUDY    32  25  74 S6        30.18S WCI  26
WOLF CREEK PAS FLURRIES  18  18 100 W9        30.18R WCI   6
$$

COZ009-010-012-014-032>034-037-058>063-131700-
...CENTRAL COLORADO...

CITY           SKY/WX    TMP DP  RH WIND       PRES   REMARKS
ASPEN          CLOUDY    29  25  85 N8        30.05R WCI  21
BUENA VISTA    FLURRIES  28  25  91 CALM      29.99F
COPPER MTN     CLOUDY    18  12  79 W9        29.99S WCI   6
BERTHOUD PASS  CLOUDY     9  -8  47 MISG      29.88F
DAKOTA HILL    CLOUDY    14  12  92 MISG      29.88F
COTTONWOOD PAS FLURRIES  30  23  74 N5        30.00S WCI  25
GUNNISON       LGT RAIN  33  24  69 W13G20    30.05F WCI  24
GRANBY         CLOUDY    27  19  74 W13       30.00S WCI  16
KREMMLING      CLOUDY    30  21  69 NW8       30.04S WCI  23
LEADVILLE      SNOW      22  18  85 N8G17     29.99S VSB 1/2 WCI  12
MONARCH PASS   CLOUDY    18  16  93 MISG      30.09R
SALIDA         CLOUDY    40  24  52 W20       30.07S
SUNLIGHT       CLOUDY    19  18  93 W10G25    30.08R FOG     WCI   8
WILKERSON PASS HVY SNOW  19  18  93 N6        30.02R VSB<1/4 WCI  11
$$

COZ069>075-131700-
...SAN LUIS VALLEY/SANGRE DE CRISTO MOUNTAINS...

CITY           SKY/WX    TMP DP  RH WIND       PRES   REMARKS
ALAMOSA        FAIR      27  20  75 CALM      30.08S
DEL NORTE      FAIR      34  25  68 W9        30.08S WCI  27
LA VETA PASS   FAIR      27  14  59 W9        30.03S WCI  17
SAGUACHE       CLOUDY    34  25  69 NW15      30.06S WCI  24
$$

COZ035-036-038>040-131700-
...NORTHERN COLORADO FRONT RANGE...

CITY           SKY/WX    TMP DP  RH WIND       PRES   REMARKS
DENVER INTL AP FAIR      42  22  44 W20G30    29.92R
AURORA         PTSUNNY   42  19  40 W17G30    29.93S
FRONT RANGE AP PTSUNNY   43  25  49 W18       29.93R
ERIE MUNI ARPT FAIR      45  18  33 W8        29.98R
BOULDER MUN AP FAIR      45  21  39 SW10      29.93S
CENTENNIAL     PTSUNNY   43  21  41 NW16      29.95R
BROOMFIELD     MOSUNNY   43  21  42 W20G32    29.94R
FORT COLLINS   FAIR      42  20  41 W15G24    29.92R
LONGMONT       FAIR      46  22  39 NW10      29.93S
$$

COZ041-046-047-076>085-087-088-131700-
...PIKES PEAK/PALMER DIVIDE AND SOUTHERN FOOTHILLS...

CITY           SKY/WX    TMP DP  RH WIND       PRES   REMARKS
COLO. SPRINGS  FAIR      46  21  37 NW15      29.93R
A. F. ACADEMY  PTSUNNY   41  22  46 NE7       29.93R
SCHRIEVER AFB  NOT AVBL
CHEYENNE MTN   NOT AVBL
ELLICOTT       NOT AVBL
FALCON         FAIR      40  21  46 W9G20     29.96R
FORT CARSON    FAIR      44  23  44 CALM      29.93R
LIMON          FAIR      37  26  64 NE6       29.90F
MONUMENT HILL  FAIR      34  23  64 NW8       29.97R WCI  27
CANON CITY     FAIR      48  27  43 NW15      29.92F
WALSENBURG     NOT AVBL
TRINIDAD       FAIR      46  23  40 W7        29.96R
$$

COZ042>045-048>051-090-091-131700-
...NORTHEAST COLORADO...

CITY           SKY/WX    TMP DP  RH WIND       PRES   REMARKS
GREELEY ARPT   FAIR      43  22  43 W15G28    29.92R
AKRON          PTSUNNY   41  26  55 W14       29.88R
BURLINGTON     FAIR      40  28  62 NW7       29.92R
WRAY           PTSUNNY   34  30  86 MISG      29.89F
YUMA           PTSUNNY   32  28  86 W6        29.89F WCI  26
STERLING       FAIR      32  30  93 S6        29.88R WCI  26
HOLYOKE        FAIR      37  34  87 W6        29.88R
FORT MORGAN    FAIR      32  26  79 W8        29.91R WCI  25
$$

COZ086-089-092>099-131700-
...SOUTHEAST COLORADO...

CITY           SKY/WX    TMP DP  RH WIND       PRES   REMARKS
PUEBLO         FAIR      38  26  62 E3        29.92R
LA JUNTA       PTSUNNY   44  24  45 NW6       29.93S
LAMAR          FAIR      42  24  49 W9        29.92S
SPRINGFIELD      N/A     50  25  37 N7        29.92S
$$




USA.gov is the U.S. government's official web portal to all federal, state and local government web resources and services.